Stations météo

Publicité
Charleville, France (7075): Température de l'air & dewpoint: 17.10.2019 05:00:00 - 23.10.2019 05:00:00 (CEST)Charleville, France (7075): Température de l'air 5cm: 17.10.2019 05:00:00 - 23.10.2019 05:00:00 (CEST)Charleville, France (7075): Température de l'air -20cm & Température de l'air -100cm: 17.10.2019 05:00:00 - 23.10.2019 05:00:00 (CEST)Charleville, France (7075): Vitesse du vent & gusts: 17.10.2019 05:00:00 - 23.10.2019 05:00:00 (CEST)Charleville, France (7075): Direction du vent: 17.10.2019 05:00:00 - 23.10.2019 05:00:00 (CEST)Charleville, France (7075): reduced air pressure: 17.10.2019 05:00:00 - 23.10.2019 05:00:00 (CEST)Charleville, France (7075): visibility: 17.10.2019 05:00:00 - 23.10.2019 05:00:00 (CEST)Charleville, France (7075): Ensoleillement: 17.10.2019 05:00:00 - 23.10.2019 05:00:00 (CEST)Charleville, France (7075): Quantités de précipitations: 17.10.2019 05:00:00 - 23.10.2019 05:00:00 (CEST)
Date & Time tt [°C] td [°C] tt 5cm [°C] tt -20cm [°C] tt -100cm [°C] ff [km/h] ff [knt] fx [km/h] fx [knt] dd ppp [hPa] vv [km] sd [min] rr [mm]
23.10.2019 05:00:00 9,8 8,9 8,7 13,2 14,6 3 1 7 4 WSW 1017,9 20 0 0,0
23.10.2019 04:00:00 10,8 9,4 10,0 13,3 14,6 3 2 8 4 SW 1018,6 20 0 0,0
23.10.2019 03:00:00 10,3 9,4 9,7 13,2 14,6 2 1 6 4 N 1019,4 20 0 0,0
23.10.2019 02:00:00 9,6 9,1 8,8 13,3 14,6 3 1 5 3 W 1020,0 20 0 0,0
23.10.2019 01:00:00 8,9 8,3 6,7 13,3 14,6 4 2 6 3 W 1020,7 20 0 0,0
23.10.2019 00:00:00 9,4 8,3 7,6 13,3 14,6 2 1 8 4 SW 1021,7 20 0 0,0
22.10.2019 23:00:00 10,8 9,2 10,5 13,3 14,6 2 1 6 4 WSW 1022,2 20 0 0,0
22.10.2019 22:00:00 10,9 9,3 9,7 13,3 14,6 3 2 6 3 SW 1022,5 20 0 0,0
22.10.2019 21:00:00 10,7 9,1 10,0 13,3 14,6 4 2 7 4 W 1022,6 20 0 0,0
22.10.2019 20:00:00 10,5 9,4 9,5 13,2 14,6 4 2 7 4 SE 1023,2 20 0 0,0
22.10.2019 19:00:00 11,3 9,9 10,8 13,2 14,6 3 2 4 2 NNW 1023,5 20 0 0,0
22.10.2019 18:00:00 11,9 9,6 11,6 13,2 14,6 0 0 8 4 N 1023,8 2,7 2 0,0
22.10.2019 17:00:00 12,9 9,7 13,8 13,1 14,6 4 2 9 5 S 1023,6 14 32 0,0
22.10.2019 16:00:00 13,7 9,5 13,8 13,0 14,6 4 2 9 5 SSW 1024,4 20 32 0,0
22.10.2019 15:00:00 11,6 9,2 12,3 13,0 14,6 5 3 11 6 ENE 1024,5 20 0 0,0
22.10.2019 14:00:00 10,9 9,0 11,8 13,0 14,6 4 2 8 4 WNW 1025,3 20 0 0,0
22.10.2019 13:00:00 10,2 8,6 10,5 13,0 14,6 3 1 9 5 ENE 1026,0 20 0 0,0
22.10.2019 12:00:00 9,3 8,5 9,9 13,0 14,6 4 2 10 6 S 1026,4 11 0 0,0
22.10.2019 11:00:00 8,9 8,6 9,1 13,0 14,6 5 3 11 6 SE 1026,3 9 0 0,0
22.10.2019 10:00:00 8,5 8,4 8,7 13,1 14,6 5 3 8 5 SSE 1026,0 3,6 0 0,0
22.10.2019 09:00:00 8,2 7,9 8,1 13,1 14,6 3 1 4 2 SE 1025,3 0,7 0 0,0
22.10.2019 08:00:00 7,8 7,7 7,7 13,2 14,7 3 1 4 2 E 1024,8 6 0 0,0
22.10.2019 07:00:00 7,4 7,3 7,3 13,3 14,7 2 1 9 5 NNE 1024,3 11 0 0,0
22.10.2019 06:00:00 6,8 6,7 5,4 13,4 14,7 3 2 9 5 ESE 1024,0 11 0 0,0
22.10.2019 05:00:00 5,1 5,0 1,8 13,4 14,7 0 0 8 4 N 1024,2 1,0 0 0,0
22.10.2019 04:00:00 4,7 4,3 2,6 13,5 14,7 3 1 6 3 S 1024,2 0,4 0 0,0
22.10.2019 03:00:00 6,4 6,1 4,1 13,5 14,7 2 1 5 3 SSE 1024,1 7 0 0,0
22.10.2019 02:00:00 6,0 5,6 2,9 13,6 14,7 3 2 8 4 S 1024,2 5 0 0,0
22.10.2019 01:00:00 7,0 6,4 4,3 13,6 14,7 5 3 8 5 E 1023,7 17 0 0,0
22.10.2019 00:00:00 9,3 7,7 6,5 13,7 14,7 4 2 13 7 SW 1023,0 20 0 0,0
21.10.2019 23:00:00 10,2 8,1 8,6 13,7 14,7 6 3 19 10 S 1022,8 20 0 0,0
21.10.2019 22:00:00 11,1 8,7 10,3 13,7 14,7 9 5 22 12 SSW 1022,2 20 0 0,0
21.10.2019 21:00:00 11,3 8,7 10,8 13,7 14,7 9 5 22 12 S 1021,8 20 0 0,0
21.10.2019 20:00:00 11,8 8,5 11,4 13,7 14,7 13 7 23 12 S 1021,4 20 0 0,0
21.10.2019 19:00:00 12,0 8,3 11,6 13,7 14,7 8 4 22 12 SSW 1020,8 20 0 0,0
21.10.2019 18:00:00 12,2 8,5 12,0 13,7 14,7 10 5 27 15 S 1020,0 20 0 0,0
21.10.2019 17:00:00 12,5 8,6 12,5 13,7 14,7 15 8 34 18 S 1019,9 20 0 0,0
21.10.2019 16:00:00 12,6 8,7 12,8 13,7 14,7 14 8 35 19 SSW 1019,4 20 0 0,0
21.10.2019 15:00:00 13,2 8,9 13,2 13,7 14,7 11 6 37 20 SSW 1018,7 20 0 0,0
21.10.2019 14:00:00 13,0 8,5 12,5 13,7 14,7 16 9 37 20 SSW 1018,5 20 0 0,0
21.10.2019 13:00:00 12,2 8,8 12,4 13,7 14,7 10 6 32 17 SSW 1018,3 20 0 0,0
21.10.2019 12:00:00 12,2 9,2 11,8 13,7 14,7 13 7 29 16 S 1017,6 20 0 0,0
21.10.2019 11:00:00 11,7 9,1 10,9 13,7 14,7 13 7 30 16 S 1016,8 20 0 0,0
21.10.2019 10:00:00 11,4 9,5 10,6 13,7 14,7 14 8 32 17 S 1015,6 13 0 0,0
21.10.2019 09:00:00 11,8 9,0 11,0 13,7 14,7 17 9 37 20 S 1014,7 20 0 0,0
21.10.2019 08:00:00 12,7 9,5 11,6 13,7 14,7 13 7 39 21 S 1013,1 20 0 0,0
21.10.2019 07:00:00 13,6 11,5 12,7 13,7 14,7 14 7 34 19 SSE 1011,9 20 0 0,0
21.10.2019 06:00:00 14,1 12,3 13,2 13,7 14,7 16 8 33 18 SSE 1011,1 20 0 0,0
21.10.2019 05:00:00 14,2 12,9 13,2 13,7 14,7 13 7 24 13 SE 1010,6 20 0 0,0
21.10.2019 04:00:00 13,5 13,0 12,5 13,7 14,7 10 5 19 10 ESE 1009,6 20 0 0,0
21.10.2019 03:00:00 12,5 12,0 12,1 13,7 14,7 8 4 13 7 SE 1009,3 5 0 0,2
21.10.2019 02:00:00 12,0 11,5 11,9 13,7 14,7 2 1 5 3 ESE 1009,0 6 0 0,0
21.10.2019 01:00:00 11,9 11,4 11,8 13,7 14,7 3 1 6 3 S 1009,0 7 0 0,0
21.10.2019 00:00:00 11,9 11,4 11,3 13,7 14,7 5 3 9 5 N 1009,1 11 0 0,0
20.10.2019 23:00:00 11,6 11,0 11,2 13,7 14,7 4 2 14 8 WSW 1007,8 8 0 0,0
20.10.2019 22:00:00 11,8 11,0 11,6 13,7 14,7 2 1 8 4 SSW 1008,3 7 0 0,2
20.10.2019 21:00:00 11,9 10,6 11,5 13,7 14,7 3 2 13 7 ENE 1007,3 20 0 0,0
20.10.2019 20:00:00 12,0 10,7 11,7 13,7 14,7 5 3 8 5 NE 1007,7 20 0 0,0
20.10.2019 19:00:00 12,0 10,9 11,6 13,7 14,7 2 1 10 5 E 1007,4 20 0 0,0
20.10.2019 18:00:00 12,2 10,8 11,7 13,7 14,7 4 2 14 8 NNW 1006,8 20 0 0,2
20.10.2019 17:00:00 12,2 10,8 11,7 13,7 14,7 5 3 21 11 N 1006,0 20 0 0,2
20.10.2019 16:00:00 12,3 10,7 11,9 13,7 14,7 6 4 15 8 N 1006,0 20 0 0,0
20.10.2019 15:00:00 12,3 10,5 11,6 13,7 14,8 7 4 16 9 N 1006,2 20 0 0,8
20.10.2019 14:00:00 12,0 10,2 11,1 13,7 14,7 4 2 14 7 WNW 1006,4 20 0 1,4
20.10.2019 13:00:00 11,5 9,7 11,0 13,7 14,8 8 4 19 11 E 1006,4 18 0 1,2
20.10.2019 12:00:00 11,8 10,5 11,4 13,7 14,7 4 2 19 11 N 1006,9 8 0 2,5
20.10.2019 11:00:00 11,9 10,6 11,4 13,7 14,7 11 6 22 12 N 1006,3 11 0 1,6
20.10.2019 10:00:00 11,7 10,9 11,3 13,7 14,8 6 3 12 7 NE 1006,6 14 0 1,6
20.10.2019 09:00:00 11,5 10,7 11,1 13,7 14,7 6 4 11 6 NNE 1006,6 9 0 1,0
20.10.2019 08:00:00 11,3 10,5 10,9 13,8 14,8 4 2 9 5 NE 1006,4 20 0 0,0
20.10.2019 07:00:00 11,4 11,1 11,3 13,8 14,7 8 4 11 6 NNE 1006,7 20 0 0,0
20.10.2019 06:00:00 11,3 11,0 10,7 13,8 14,7 0 0 7 4 N 1007,1 19 0 0,0
20.10.2019 05:00:00 11,4 11,1 11,2 13,8 14,8 5 3 13 7 E 1006,7 12 0 0,0
20.10.2019 04:00:00 11,5 11,3 11,0 13,8 14,8 5 3 8 4 ESE 1007,1 6 0 0,2
20.10.2019 03:00:00 10,8 10,5 10,5 13,8 14,8 2 1 4 2 SSE 1007,3 1,6 0 0,4
20.10.2019 02:00:00 10,8 10,5 10,5 13,8 14,8 0 0 5 3 N 1007,4 2,8 0 0,2
20.10.2019 01:00:00 11,0 10,7 10,7 13,9 14,8 0 0 7 4 N 1007,9 5 0 0,0
20.10.2019 00:00:00 10,6 10,3 10,1 13,9 14,8 3 2 5 3 E 1007,9 4,2 0 0,2
19.10.2019 23:00:00 10,3 10,0 9,8 13,9 14,8 2 1 5 3 ESE 1007,8 3,6 0 0,0
19.10.2019 22:00:00 10,5 10,2 9,3 13,9 14,8 0 0 4 2 N 1007,3 12 0 0,0
19.10.2019 21:00:00 9,7 9,2 8,2 13,9 14,8 3 1 8 4 ENE 1007,0 12 0 0,0
19.10.2019 20:00:00 10,3 9,8 8,4 13,9 14,8 6 3 11 6 ESE 1006,9 20 0 0,0
19.10.2019 19:00:00 11,5 10,2 9,9 13,9 14,8 3 1 16 9 SSE 1006,0 20 0 0,0
19.10.2019 18:00:00 12,8 10,7 12,3 13,9 14,8 9 5 21 11 SSW 1006,0 20 3 0,0
19.10.2019 17:00:00 13,2 11,1 12,9 13,8 14,8 9 5 21 11 S 1005,9 20 7 0,0
19.10.2019 16:00:00 12,9 11,5 12,6 13,8 14,8 8 4 15 8 SE 1005,8 20 0 0,4
19.10.2019 15:00:00 12,9 11,5 12,8 13,8 14,8 6 4 20 11 SSW 1005,9 19 0 0,2
19.10.2019 14:00:00 12,9 11,5 12,6 13,8 14,8 10 5 20 11 SSW 1005,9 17 0 1,0
19.10.2019 13:00:00 12,7 11,3 12,4 13,8 14,8 7 4 23 12 SW 1005,9 13 0 0,4
19.10.2019 12:00:00 12,9 10,8 12,2 13,8 14,8 9 5 24 13 SSW 1005,8 20 0 1,6
19.10.2019 11:00:00 12,5 11,2 12,1 13,8 14,8 5 3 28 15 SSW 1005,7 4,7 0 1,2
19.10.2019 10:00:00 12,9 11,1 12,0 13,8 14,8 14 8 37 20 SSW 1005,8 20 0 0,0
19.10.2019 09:00:00 12,5 10,9 11,6 13,9 14,8 14 7 32 17 SSW 1005,6 20 0 0,0
19.10.2019 08:00:00 12,1 10,8 11,1 13,9 14,8 16 9 29 15 S 1005,3 20 0 0,4
19.10.2019 07:00:00 11,6 10,5 10,9 13,9 14,8 9 5 26 14 S 1005,7 9 0 1,4
19.10.2019 06:00:00 11,7 10,3 10,6 14,0 14,8 9 5 24 13 SSE 1006,3 12 0 0,4
19.10.2019 05:00:00 11,7 9,6 10,8 14,0 14,8 9 5 22 12 S 1006,8 12 0 0,0
19.10.2019 04:00:00 11,8 9,2 10,6 14,1 14,8 11 6 24 13 SSE 1007,0 20 0 0,0
19.10.2019 03:00:00 11,4 9,0 10,3 14,1 14,8 8 4 17 9 SE 1007,6 20 0 0,0
19.10.2019 02:00:00 11,5 8,7 9,6 14,2 14,8 8 4 21 11 SSE 1008,1 20 0 0,0
19.10.2019 01:00:00 11,0 8,6 9,6 14,2 14,8 9 5 16 9 E 1008,4 20 0 0,0
19.10.2019 00:00:00 11,0 8,2 9,2 14,3 14,8 8 5 14 8 SE 1008,9 20 0 0,0
18.10.2019 23:00:00 10,8 7,8 8,3 14,3 14,8 8 4 13 7 SE 1009,4 20 0 0,0
18.10.2019 22:00:00 10,7 7,6 9,1 14,4 14,8 9 5 15 8 S 1009,8 20 0 0,0
18.10.2019 21:00:00 11,3 7,4 8,8 14,4 14,8 9 5 15 8 S 1010,0 20 0 0,0
18.10.2019 20:00:00 11,3 6,8 8,2 14,4 14,8 5 3 12 6 S 1010,2 20 0 0,0
18.10.2019 19:00:00 11,1 6,6 8,7 14,4 14,8 5 3 16 9 SSE 1010,1 20 0 0,0
18.10.2019 18:00:00 13,0 7,0 11,8 14,4 14,8 6 3 36 20 S 1009,9 20 17 0,0
18.10.2019 17:00:00 14,7 6,3 15,5 14,3 14,8 14 8 38 20 SW 1009,7 20 56 0,0
18.10.2019 16:00:00 14,5 6,8 14,7 14,3 14,8 18 10 39 21 SW 1009,6 20 41 0,0
18.10.2019 15:00:00 14,8 8,5 14,2 14,3 14,8 13 7 42 23 SW 1009,3 20 20 0,0
18.10.2019 14:00:00 13,4 7,8 14,1 14,3 14,8 17 9 51 28 SW 1009,2 20 37 0,0
18.10.2019 13:00:00 12,8 7,9 11,0 14,3 14,8 28 15 51 28 WSW 1009,2 20 30 0,0
18.10.2019 12:00:00 11,4 8,4 10,3 14,3 14,8 14 8 34 18 SSW 1008,5 20 0 0,0
18.10.2019 11:00:00 11,1 8,1 10,0 14,3 14,8 11 6 50 27 SSW 1007,5 20 0 0,6
18.10.2019 10:00:00 11,7 9,8 11,1 14,4 14,8 28 15 53 28 WSW 1007,6 14 20 3,3
18.10.2019 09:00:00 13,9 11,6 13,2 14,4 14,8 18 10 42 23 SSW 1006,3 19 0 0,0
18.10.2019 08:00:00 13,7 11,6 12,9 14,4 14,8 20 11 41 22 S 1006,9 20 0 0,0
18.10.2019 07:00:00 13,7 11,4 13,2 14,4 14,8 21 12 44 24 S 1007,3 20 0 0,0
18.10.2019 06:00:00 13,7 11,7 13,0 14,4 14,8 18 10 37 20 S 1008,0 20 0 0,0
18.10.2019 05:00:00 13,9 11,8 13,2 14,4 14,8 18 10 41 22 S 1008,5 20 0 0,0
18.10.2019 04:00:00 13,9 12,1 13,2 14,4 14,8 14 8 37 20 S 1008,7 20 0 0,0
18.10.2019 03:00:00 14,0 12,4 13,1 14,4 14,8 16 9 35 19 S 1009,3 20 0 0,0
18.10.2019 02:00:00 13,9 12,5 13,2 14,5 14,8 17 9 35 19 S 1009,8 20 0 0,0
18.10.2019 01:00:00 13,8 12,2 13,2 14,4 14,8 18 10 35 19 S 1010,1 20 0 0,0
18.10.2019 00:00:00 13,8 12,2 12,7 14,5 14,8 16 9 32 17 S 1010,6 20 0 0,0
17.10.2019 23:00:00 13,7 12,1 12,6 14,5 14,8 13 7 30 16 S 1011,3 20 0 0,0
17.10.2019 22:00:00 13,4 12,1 12,4 14,5 14,8 11 6 28 15 S 1011,2 20 0 0,0
17.10.2019 21:00:00 14,0 12,4 13,2 14,4 14,8 10 5 29 16 SSW 1011,3 20 0 0,0
17.10.2019 20:00:00 14,1 12,7 13,4 14,4 14,8 12 7 26 14 SSW 1011,1 20 0 0,0
17.10.2019 19:00:00 14,0 12,7 13,5 14,4 14,8 8 4 24 13 S 1010,7 20 0 0,0
17.10.2019 18:00:00 13,9 12,9 13,6 14,4 14,8 10 6 27 14 S 1010,4 12 0 0,2
17.10.2019 17:00:00 14,0 13,0 13,7 14,4 14,8 9 5 35 19 S 1010,6 9 0 0,2
17.10.2019 16:00:00 14,4 12,9 13,8 14,4 14,8 13 7 28 15 S 1010,7 15 0 0,2
17.10.2019 15:00:00 14,4 12,9 13,9 14,3 14,8 11 6 - - S 1011,0 13 0 0,4
17.10.2019 14:00:00 14,3 12,7 13,6 14,3 14,8 13 7 25 14 S 1011,4 17 0 0,2
17.10.2019 13:00:00 13,8 12,7 13,4 14,3 14,8 13 7 26 14 S 1011,8 20 0 0,0
17.10.2019 12:00:00 13,3 12,4 13,4 14,3 14,8 3 2 13 7 S 1012,1 20 0 0,4
17.10.2019 11:00:00 12,8 11,9 12,8 14,3 14,8 5 3 16 9 SW 1012,2 2,5 0 0,4
17.10.2019 10:00:00 13,0 11,4 12,3 14,3 14,8 5 3 9 5 S 1012,0 20 0 0,0
17.10.2019 09:00:00 12,3 11,2 11,4 14,3 14,8 6 3 20 11 SSE 1012,1 20 0 0,0
17.10.2019 08:00:00 13,0 11,2 12,0 14,3 14,8 8 4 34 19 SW 1011,4 20 0 0,0
17.10.2019 07:00:00 13,5 11,9 12,3 14,3 14,8 12 7 28 15 SSW 1010,8 20 0 0,0
17.10.2019 06:00:00 13,5 12,6 13,0 14,4 14,8 13 7 25 13 SSW 1010,5 11 0 0,2
17.10.2019 05:00:00 13,3 12,5 12,8 14,4 14,8 10 6 28 15 SSW 1010,1 2,4 0 0,8

tt = Température de l'air
td = dewpoint
tt 5cm = Température de l'air 5cm
tt -20cm = Température de l'air -20cm
tt -100cm = Température de l'air -100cm
ff = Vitesse du vent
fx = gusts
dd = Direction du vent
ppp = reduced air pressure
vv = visibility
sd = Ensoleillement
rr = Quantités de précipitations

stations d'obs. à proximité